User: anonymous   Login
Location: Unspecified
(0.0000°N, 0.0000°E)
Time: 20:00:29
(UTC+00:00)
Language:

AL-FARABI 1 - Orbit

View from above orbital plane
View from above orbital plane
View from above satellite
View from above satellite

Ground track
Ground track

The orbit data is extracted from the following two-line orbital elements,

1 42016U 17008BW  17268.88507258 +.00002582 +00000-0 +11162-3 0  9997
2 42016 097.4848 330.1098 0005613 215.9402 144.1458 15.23373101033792
Epoch (UTC): 25 September 2017 21:14:30
Eccentricity: 0.0005613
inclination: 97.4848°
perigee height: 492 km
apogee height: 499 km
right ascension of ascending node: 330.1098°
argument of perigee: 215.9402°
revolutions per day: 15.23373101
mean anomaly at epoch: 144.1458°
orbit number at epoch: 3379

The dashed part of the orbit path shows where the satellite is in the earth's shadow,  

DLR